Lincoln Hwy 8

*Note: All times are displayed in the local standard time of the station location.
**Rain - Equipment is designed to accurately record liquid precipitation; under conditions when precipitation is not in liquid form, the data displayed may not properly reflect rainfall values.

Date Max Temp
(°C)
Min Temp
(°C)
Avg Temp
(°C)
Rain (mm) Avg RH (%)
Fri, Feb 15, 2019 4.5 -4.3 0.7 2.6 77.2
Thu, Feb 14, 2019 2.9 -4.4 -1.3 1.0 77.9
Wed, Feb 13, 2019 1.4 -4.4 -2.5 0.6 80.8
Tue, Feb 12, 2019 1.9 -5.0 -2.2 11.4 90.0
Mon, Feb 11, 2019 -1.8 -4.3 -3.1 0.0 75.3
Sun, Feb 10, 2019 -2.8 -9.3 -5.6 0.0 72.9
Sat, Feb 09, 2019 -4.1 -10.1 -6.9 0.0 65.7
DateTime Avg Temp (°C) Rain (mm) RH (%)
Sat, Feb 16, 2019 16:00 -1.8 0.0 56.2
Sat, Feb 16, 2019 15:00 -2.3 0.0 59.4
Sat, Feb 16, 2019 14:00 -2.4 0.0 59.3
Sat, Feb 16, 2019 13:00 -2.8 0.0 60.5
Sat, Feb 16, 2019 12:00 -3.2 0.0 60.9
Sat, Feb 16, 2019 11:00 -3.5 0.0 63.1
Sat, Feb 16, 2019 10:00 -3.6 0.0 64.7
Sat, Feb 16, 2019 09:00 -3.7 0.0 65.2
Sat, Feb 16, 2019 08:00 -4.2 0.0 67.1
Sat, Feb 16, 2019 07:00 -3.8 0.0 70.9
Sat, Feb 16, 2019 06:00 -3.1 0.0 66.9
Sat, Feb 16, 2019 05:00 -3.3 0.0 80.8
Sat, Feb 16, 2019 04:00 -3.5 0.0 80.5
Sat, Feb 16, 2019 03:00 -3.9 0.0 80.7
Sat, Feb 16, 2019 02:00 -3.7 0.0 77.1
Sat, Feb 16, 2019 01:00 -3.9 0.0 75.1
Sat, Feb 16, 2019 00:00 -4.0 0.0 73.0
Fri, Feb 15, 2019 23:00 -4.2 0.0 71.5
Fri, Feb 15, 2019 22:00 -4.1 0.0 70.1
Fri, Feb 15, 2019 21:00 -3.7 0.0 67.7
Fri, Feb 15, 2019 20:00 -2.6 0.0 67.9
Fri, Feb 15, 2019 19:00 -2.1 0.0 66.6
Fri, Feb 15, 2019 18:00 -1.7 0.0 66.4
Fri, Feb 15, 2019 17:00 -0.8 0.0 67.1
Fri, Feb 15, 2019 16:00 -0.5 0.0 74.3
Fri, Feb 15, 2019 15:00 -0.2 0.0 74.2
Fri, Feb 15, 2019 14:00 0.6 0.0 74.4
Fri, Feb 15, 2019 13:00 1.9 0.0 66.9
Fri, Feb 15, 2019 12:00 2.4 0.0 67.3
Fri, Feb 15, 2019 11:00 2.9 0.0 71.7
Fri, Feb 15, 2019 10:00 3.7 0.0 82.7
Fri, Feb 15, 2019 09:00 4.3 0.0 88.7
Fri, Feb 15, 2019 08:00 4.3 0.0 90.5
Fri, Feb 15, 2019 07:00 4.4 0.0 90.8
Fri, Feb 15, 2019 06:00 4.0 0.6 93.6
Fri, Feb 15, 2019 05:00 3.9 0.8 89.5
Fri, Feb 15, 2019 04:00 3.8 1.0 83.9
Fri, Feb 15, 2019 03:00 3.2 0.2 78.0
Fri, Feb 15, 2019 02:00 0.9 0.0 87.6
Fri, Feb 15, 2019 01:00 0.2 0.0 88.4
Fri, Feb 15, 2019 00:00 -0.1 0.0 90.2
Thu, Feb 14, 2019 23:00 -0.2 0.0 88.7
Thu, Feb 14, 2019 22:00 -0.5 0.0 90.6
Thu, Feb 14, 2019 21:00 -1.1 0.0 89.8
Thu, Feb 14, 2019 20:00 -1.5 0.0 87.2
Thu, Feb 14, 2019 19:00 -2.0 0.0 88.5
Thu, Feb 14, 2019 18:00 0.2 0.0 74.4
Thu, Feb 14, 2019 17:00 1.1 0.0 69.2


asterix Register now to access more data! asterix